Weather Roundup
Issued by NWS Corpus Christi, TX

Home | Current Version | Previous Version | Text Only | Print | Product List | Glossary On
Versions: 1 2 3 4 5 6 7 8 9 10 11 12 13 14 15 16 17 18 19 20 21 22 23 24 25 26 27 28 29 30 31 32 33 34 35 36 37 38 39 40 41 42 43 44 45 46 47 48 49 50
000
ASUS44 KCRP 280110
HRRCRP

SOUTH TEXAS REGIONAL WEATHER ROUNDUP
NATIONAL WEATHER SERVICE CORPUS CHRISTI TX
700 PM CST TUE JAN 27 2015


TXZ229>244-280200-
...CORPUS CHRISTI AREA OBSERVATIONS...

CITY           SKY/WX    TMP DP  RH WIND       PRES   REMARKS
CORPUS CHRISTI PTCLDY    64  47  53 SE9       30.13R
NAS CORPUS CHR PTCLDY    62  48  60 S8        30.13R
ROCKPORT       CLEAR     62  47  57 S6        30.12S
KINGSVILLE NAS PTCLDY    64  47  53 SE7       30.13R
ALICE          CLEAR     66  40  38 S6        30.12R
FALFURRIAS     CLEAR     71  35  27 SE6       30.13R
$$

...VICTORIA AREA OBSERVATIONS...

CITY           SKY/WX    TMP DP  RH WIND       PRES   REMARKS
VICTORIA       CLEAR     65  45  48 CALM      30.13R
BEEVILLE       FAIR      68  41  38 CALM      30.12S
PLEASANTON     CLEAR     62  40  45 CALM      30.13R
SAN ANTONIO    PTCLDY    73  36  25 S5        30.13R
$$

...LAREDO AREA OBSERVATIONS...

CITY           SKY/WX    TMP DP  RH WIND       PRES   REMARKS
LAREDO         CLEAR     70  39  32 CALM      30.15R
COTULLA        PTCLDY    72  39  30 CALM      30.12R
DEL RIO        CLEAR     71  37  28 SE5       30.11S
MCALLEN        CLEAR     67  42  40 SE5       30.15R
HEBBRONVILLE   PTCLDY    71  36  27 S3        30.14S
$$

...OTHER TEXAS OBSERVATIONS...

CITY           SKY/WX    TMP DP  RH WIND       PRES   REMARKS
BROWNSVILLE    CLEAR     64  47  53 S8        30.16S
HOUSTON        PTCLDY    59  48  67 CALM      30.12R
COL. STATION   CLEAR     63  47  55 CALM      30.12R
AUSTIN         PTCLDY    57  47  69 CALM      30.12R
WACO           PTCLDY    54  43  66 S5        30.12R
FORT WORTH     MOCLDY    65  38  36 SE5       30.10S
WICHITA FALLS  PTCLDY    66  38  35 S5        30.08S
LUBBOCK        PTCLDY    60  32  34 S8        30.14S
EL PASO        PTCLDY    63  39  41 S3        30.20R
$$

...MARINE OBSERVATIONS...

STATION/POSITION TIME  SKY/WX   TEMP    WIND        PRES    VSBY  WAVE   SWELL
                                AIR SEA DIR/SP/G                  HT/PER HT/PER
                 (UTC)          (F)     (DEG/KT/KT) (MB)    (MI)  (FT/S) (FT/S)
PORT ARANSAS     0100            62 60  180/  7/  7 1021.3R
BUOY 90 E PORT A 0100            68 68  230/ 10/ 10 1020.9R         2/ 5   2/ 5
BUOY 45 SE BAFFI 0100            68 67  180/  8/ 10 1020.6R         0
BUOY 200 E PT IS 0100            70 72  310/ 10/ 12 1021.6R         3/ 5   2/ 5
BUOY 15 E GALVES 0100            58 57  180/  4/  6 1020.1R         1/ 4   2/ 4
$$



USA.gov is the U.S. government's official web portal to all federal, state and local government web resources and services.